Location: Joplin, MO
(37.0842°N, 94.5133°W)
Time: 20:44:13
(UTC+02:00)

Courier 1B Rocket - Pass Details

Date: 01 April 2023
Orbit: 920 x 1202 km, 28.2° (Epoch: 05 June)

Event Time Altitude Azimuth Distance (km) Brightness Sun altitude
Rises 04:23:38 0° 260° (W) 3,959 9.1 -20.9°
Reaches altitude 10° 04:26:41 10° 253° (WSW) 2,957 8.2 -21.4°
Maximum altitude 04:33:16 39° 187° (S) 1,525 5.8 -22.6°
Enters shadow 04:34:57 34° 157° (SSE) 1,637 5.8 -22.9°
Drops below altitude 10° 04:39:27 10° 121° (ESE) 2,762 - -23.7°
Sets 04:42:12 0° 114° (ESE) 3,671 - -24.2°
